Latest Weather Observations for Adelaide Airport

IDS60901

Issued at 12:25 pm CST Wednesday 30 July 2014 (issued every 10 minutes, with the page automatically refreshed every 10 minutes)

About weather observations | Map of Adelaide area stations | Latest observations for Adelaide area | Other Formats
Station Details ID: 023034 Name: ADELAIDE AIRPORT Lat: -34.95 Lon: 138.52 Height: 2.0 m
Data from the previous 72 hours. | See also: Recent months at Adelaide Airport
Date/Time
CST
Tmp

°C
App
Tmp
°C
Dew
Point
°C
Rel
Hum
%
Delta-T

°C
Wind Press
QNH
hPa
Press
MSL
hPa
Rain
since
9 am
mm
Dir
 
Spd
km/h
Gust
km/h
Spd
kts
Gust
kts
30/12:00pm 14.9 9.8 11.9 82 1.6 NNW 30 37 16 20 1017.4 1017.4 0.0
30/11:30am 15.6 12.0 11.9 78 2.0 NNW 22 30 12 16 1017.7 - 0.0
30/11:00am 15.2 10.9 12.1 82 1.7 NNW 26 35 14 19 1017.9 - 0.0
30/10:30am 14.0 10.0 11.8 86 1.2 NNW 24 33 13 18 1018.5 - 0.0
30/10:00am 14.1 10.9 11.9 86 1.2 N 20 32 11 17 1018.4 - 0.0
30/09:30am 13.4 8.6 11.7 89 0.9 NNW 28 33 15 18 1018.7 - 0.0
30/09:00am 13.6 10.0 11.9 89 0.9 NNW 22 28 12 15 1018.4 1018.4 1.0
30/08:30am 13.3 9.4 12.0 92 0.7 NNW 24 33 13 18 1018.0 - 1.0
30/08:27am 13.3 9.4 12.0 92 0.7 NNW 24 32 13 17 1018.0 - 1.0
30/08:00am 13.0 9.0 11.7 92 0.7 NNW 24 32 13 17 1018.3 - 1.0
30/07:30am 13.0 9.0 11.9 93 0.6 NNW 24 35 13 19 1018.3 - 1.0
30/07:00am 13.0 9.0 11.7 92 0.7 NNW 24 30 13 16 1018.2 - 1.0
30/06:30am 13.2 9.2 11.7 91 0.8 NNW 24 32 13 17 1017.9 - 1.0
30/06:00am 13.0 9.0 11.7 92 0.7 N 24 33 13 18 1017.5 1017.5 1.0
30/05:30am 13.1 8.7 11.8 92 0.7 N 26 33 14 18 1017.4 - 1.0
30/05:00am 13.0 9.0 11.9 93 0.6 N 24 33 13 18 1017.3 - 1.0
30/04:30am 13.1 9.9 12.0 93 0.6 N 20 28 11 15 1017.3 - 1.0
30/04:00am 13.1 10.5 12.0 93 0.6 N 17 26 9 14 1017.5 - 1.0
30/03:30am 13.2 10.2 11.9 92 0.7 N 19 26 10 14 1017.7 - 1.0
30/03:00am 13.2 10.1 12.1 93 0.6 NNW 20 28 11 15 1017.8 1017.8 1.0
30/02:30am 13.4 9.4 11.9 91 0.8 NNW 24 30 13 16 1017.9 - 1.0
30/02:00am 13.4 9.9 12.1 92 0.7 NNW 22 28 12 15 1018.1 - 1.0
30/01:30am 13.3 9.4 12.2 93 0.6 NNW 24 32 13 17 1018.4 - 1.0
30/01:00am 13.3 9.0 12.2 93 0.6 NNW 26 33 14 18 1018.2 - 1.0
30/12:30am 13.6 9.4 12.3 92 0.7 NNW 26 33 14 18 1018.3 - 1.0
30/12:00am 13.7 9.5 12.4 92 0.7 NNW 26 33 14 18 1018.4 1018.4 1.0
 
Date/Time
CST
Tmp

°C
App
Tmp
°C
Dew
Point
°C
Rel
Hum
%
Delta-T

°C
Wind Press
QNH
hPa
Press
MSL
hPa
Rain
since
9 am
mm
Dir
 
Spd
km/h
Gust
km/h
Spd
kts
Gust
kts
29/11:30pm 13.7 9.9 12.4 92 0.7 NNW 24 30 13 16 1018.5 - 1.0
29/11:00pm 13.7 9.5 12.4 92 0.7 NW 26 32 14 17 1018.7 - 1.0
29/10:30pm 13.9 9.3 12.2 89 0.9 NW 28 35 15 19 1018.6 - 1.0
29/10:00pm 14.3 9.3 12.1 87 1.2 NW 30 35 16 19 1018.6 - 1.0
29/09:30pm 14.1 9.5 12.2 88 1.0 NW 28 35 15 19 1018.4 - 1.0
29/09:00pm 13.8 9.9 12.1 89 0.9 WNW 24 33 13 18 1018.3 1018.3 1.0
29/08:30pm 13.9 9.2 12.0 88 1.0 WNW 28 37 15 20 1018.1 - 1.0
29/08:00pm 14.2 9.1 12.0 87 1.2 NW 30 41 16 22 1017.8 - 1.0
29/07:30pm 13.8 10.8 12.7 93 0.6 NW 20 28 11 15 1017.6 - 1.0
29/07:00pm 13.8 9.3 12.5 92 0.7 WNW 28 37 15 20 1017.5 - 1.0
29/06:30pm 14.2 9.0 12.9 92 0.7 WNW 32 46 17 25 1017.6 - 1.0
29/06:00pm 14.8 10.9 12.0 83 1.5 NW 24 30 13 16 1016.9 1016.9 0.8
29/05:30pm 14.9 11.4 12.1 83 1.5 NW 22 30 12 16 1016.5 - 0.8
29/05:00pm 14.6 10.9 12.6 88 1.1 NW 24 32 13 17 1016.5 - 0.8
29/04:30pm 14.1 10.9 13.2 94 0.5 NW 22 30 12 16 1016.5 - 0.8
29/04:00pm 14.1 9.3 13.0 93 0.6 NW 30 43 16 23 1016.6 - 0.6
29/03:46pm 14.4 10.0 12.8 90 0.9 NW 28 35 15 19 1016.2 - 0.0
29/03:30pm 14.5 10.1 12.9 90 0.9 NNW 28 39 15 21 1016.1 - 0.0
29/03:21pm 14.7 10.2 12.7 88 1.1 NW 28 35 15 19 1016.1 - 0.0
29/03:00pm 15.1 10.1 12.3 83 1.5 NW 30 37 16 20 1015.9 1015.9 0.0
29/02:30pm 15.2 10.5 12.1 82 1.7 NW 28 33 15 18 1015.8 - 0.0
29/02:00pm 15.4 9.8 12.1 81 1.8 NW 33 43 18 23 1015.7 - 0.0
29/01:30pm 15.6 10.5 11.9 78 2.0 NW 30 37 16 20 1015.8 - 0.0
29/01:00pm 15.6 10.2 12.1 80 1.9 NNW 32 37 17 20 1015.9 - 0.0
29/12:30pm 15.4 10.4 12.1 81 1.8 NNW 30 39 16 21 1016.1 - 0.0
29/12:00pm 15.2 9.5 11.7 79 1.9 NNW 33 44 18 24 1016.5 1016.5 0.0
29/11:30am 15.5 9.4 11.8 78 2.0 NNW 35 50 19 27 1016.8 - 0.0
29/11:00am 15.0 9.9 11.8 81 1.7 NNW 30 39 16 21 1016.9 - 0.0
29/10:30am 14.7 9.9 11.7 82 1.6 NNW 28 33 15 18 1016.7 - 0.0
29/10:00am 14.4 8.6 11.6 83 1.5 NW 33 44 18 24 1016.7 - 0.0
29/09:30am 14.2 8.9 11.4 83 1.5 NNW 30 37 16 20 1016.6 - 0.0
29/09:00am 13.8 8.0 10.9 83 1.5 NNW 32 48 17 26 1016.3 1016.3 0.0
29/08:30am 13.4 7.6 10.7 84 1.4 NNW 32 41 17 22 1016.1 - 0.0
29/08:00am 12.6 7.4 10.3 86 1.2 NNW 28 35 15 19 1015.8 - 0.0
29/07:30am 12.7 7.0 9.8 82 1.5 NNW 30 37 16 20 1016.0 - 0.0
29/07:00am 12.5 6.5 10.0 85 1.3 NNW 32 41 17 22 1015.5 - 0.0
29/06:30am 12.2 6.0 9.4 83 1.4 NNW 32 39 17 21 1015.6 - 0.0
29/06:00am 12.2 6.0 9.2 82 1.5 NNW 32 43 17 23 1015.0 1015.0 0.0
29/05:30am 12.3 5.0 8.7 79 1.8 NNW 37 46 20 25 1015.5 - 0.0
29/05:00am 11.0 5.9 7.7 80 1.6 N 24 33 13 18 1015.5 - 0.0
29/04:30am 9.7 5.3 7.4 85 1.1 N 20 26 11 14 1015.5 - 0.0
29/04:00am 8.6 4.3 6.9 89 0.8 NNE 19 22 10 12 1015.9 - 0.0
29/03:30am 7.6 4.3 6.3 91 0.6 NNE 13 17 7 9 1016.0 - 0.0
29/03:00am 8.2 4.2 6.5 89 0.8 NNE 17 19 9 10 1015.9 1015.9 0.0
29/02:30am 8.4 4.5 6.9 90 0.7 NE 17 20 9 11 1015.9 - 0.0
29/02:00am 9.5 5.7 7.6 88 0.9 NNE 17 20 9 11 1016.1 - 0.0
29/01:30am 9.0 5.2 7.5 90 0.7 NE 17 19 9 10 1016.4 - 0.0
29/01:00am 11.0 7.8 8.3 83 1.3 N 15 17 8 9 1016.4 - 0.0
29/12:30am 12.0 8.8 8.3 78 1.8 N 15 19 8 10 1016.5 - 0.0
29/12:00am 13.1 9.5 8.3 72 2.4 NNW 17 22 9 12 1016.7 1016.7 0.0
 
Date/Time
CST
Tmp

°C
App
Tmp
°C
Dew
Point
°C
Rel
Hum
%
Delta-T

°C
Wind Press
QNH
hPa
Press
MSL
hPa
Rain
since
9 am
mm
Dir
 
Spd
km/h
Gust
km/h
Spd
kts
Gust
kts
28/11:30pm 12.5 8.7 8.9 79 1.8 N 19 22 10 12 1016.7 - 0.0
28/11:00pm 13.3 9.8 8.7 73 2.3 NNW 17 22 9 12 1016.9 - 0.0
28/10:30pm 13.5 9.7 8.9 74 2.3 NNW 19 28 10 15 1016.9 - 0.0
28/10:00pm 13.5 9.2 9.4 76 2.1 NNW 22 28 12 15 1017.1 - 0.0
28/09:30pm 13.4 9.5 9.5 77 2.0 N 20 28 11 15 1016.9 - 0.0
28/09:00pm 13.5 9.7 9.8 78 1.9 N 20 30 11 16 1017.0 1017.0 0.0
28/08:30pm 13.4 9.9 10.3 81 1.6 N 19 26 10 14 1016.9 - 0.0
28/08:00pm 13.6 10.0 9.9 78 1.9 N 19 28 10 15 1016.7 - 0.0
28/07:30pm 13.7 10.0 10.2 79 1.8 N 20 28 11 15 1016.6 - 0.0
28/07:00pm 13.7 10.0 10.2 79 1.8 N 20 28 11 15 1016.4 - 0.0
28/06:30pm 13.9 11.2 10.2 78 1.9 N 15 22 8 12 1016.3 - 0.0
28/06:00pm 13.7 10.6 10.2 79 1.8 N 17 20 9 11 1016.1 1016.1 0.0
28/05:30pm 14.1 10.7 10.7 80 1.8 N 19 26 10 14 1016.1 - 0.0
28/05:00pm 14.7 11.3 11.1 79 1.9 NNW 20 30 11 16 1016.2 - 0.0
28/04:30pm 14.9 10.4 11.3 79 1.9 NNW 26 35 14 19 1015.9 - 0.0
28/04:00pm 15.5 11.3 11.2 75 2.3 N 24 32 13 17 1015.7 - 0.0
28/03:30pm 15.5 10.9 11.0 74 2.4 NNW 26 33 14 18 1015.9 - 0.0
28/03:00pm 15.8 11.2 10.9 72 2.6 NNW 26 33 14 18 1016.2 1016.2 0.0
28/02:30pm 15.3 11.1 11.2 76 2.2 NNW 24 32 13 17 1016.2 - 0.0
28/02:00pm 15.3 11.8 10.8 74 2.4 NNW 20 28 11 15 1016.5 - 0.0
28/01:30pm 15.4 12.1 10.9 74 2.4 N 19 26 10 14 1016.7 - 0.0
28/01:00pm 14.4 11.0 10.6 78 2.0 N 19 24 10 13 1017.2 - 0.0
28/12:30pm 14.3 10.9 11.1 81 1.7 NNW 20 28 11 15 1017.6 - 0.0
28/12:00pm 13.6 10.0 10.7 82 1.5 NNW 20 28 11 15 1017.9 1017.9 0.0
28/11:30am 13.5 9.8 10.2 80 1.7 N 20 26 11 14 1018.2 - 0.0
28/11:22am 13.4 9.6 9.9 79 1.8 N 20 26 11 14 1018.3 - 0.0
28/11:00am 13.5 9.3 9.8 78 1.9 N 22 30 12 16 1018.5 - 0.0
28/10:30am 13.1 9.4 9.6 79 1.8 NNW 19 26 10 14 1018.8 - 0.0
28/10:00am 13.1 10.2 9.8 80 1.7 NNW 15 22 8 12 1018.8 - 0.0
28/09:30am 13.3 10.8 9.8 79 1.8 N 13 17 7 9 1018.8 - 0.0
28/09:00am 12.7 10.5 9.3 80 1.7 NNE 11 15 6 8 1018.6 1018.6 0.0
28/08:30am 11.2 8.3 8.3 82 1.4 NNE 13 15 7 8 1018.5 - 0.0
28/08:00am 9.7 6.7 7.8 88 0.9 NNE 13 15 7 8 1018.4 - 0.0
28/07:30am 9.1 6.3 7.0 87 1.0 NNE 11 15 6 8 1018.0 - 0.0
28/07:00am 9.8 5.9 7.0 83 1.3 NNE 17 20 9 11 1017.8 - 0.0
28/06:30am 10.3 6.8 7.1 80 1.5 NNE 15 19 8 10 1017.5 - 0.0
28/06:00am 10.3 7.6 7.4 82 1.4 NE 11 13 6 7 1017.5 1017.5 0.0
28/05:42am 10.3 7.9 7.1 80 1.5 NE 9 11 5 6 1017.6 - 0.0
28/05:30am 10.2 7.0 7.0 80 1.5 NNE 13 15 7 8 1017.6 - 0.0
28/05:00am 10.6 7.4 7.0 78 1.7 NNE 13 17 7 9 1017.6 - 0.0
28/04:30am 10.1 6.6 7.1 81 1.4 NNE 15 19 8 10 1017.5 - 0.0
28/04:00am 10.1 6.5 6.9 80 1.5 NE 15 17 8 9 1017.8 - 0.0
28/03:30am 8.2 4.3 5.5 83 1.2 NE 15 17 8 9 1017.8 - 0.0
28/03:00am 7.2 3.6 4.9 85 1.0 NE 13 15 7 8 1017.9 1017.9 0.0
28/02:30am 8.0 5.2 5.3 83 1.2 NE 9 13 5 7 1018.2 - 0.0
28/02:00am 8.4 5.7 5.7 83 1.2 NE 9 11 5 6 1018.0 - 0.0
28/01:30am 8.9 6.2 5.8 81 1.4 NE 9 13 5 7 1018.0 - 0.0
28/01:00am 9.2 6.2 5.9 80 1.5 NE 11 11 6 6 1018.0 - 0.0
28/12:30am 10.2 7.3 6.3 77 1.8 NNE 11 13 6 7 1018.2 - 0.0
28/12:00am 10.6 7.4 6.8 77 1.8 NNE 13 15 7 8 1018.3 1018.3 0.0
 
Date/Time
CST
Tmp

°C
App
Tmp
°C
Dew
Point
°C
Rel
Hum
%
Delta-T

°C
Wind Press
QNH
hPa
Press
MSL
hPa
Rain
since
9 am
mm
Dir
 
Spd
km/h
Gust
km/h
Spd
kts
Gust
kts
27/11:30pm 11.3 8.2 7.1 75 2.0 NNE 13 15 7 8 1018.6 - 0.0
27/11:00pm 11.0 7.0 6.5 74 2.1 NNE 17 19 9 10 1018.7 - 0.0
27/10:30pm 12.4 8.7 6.5 67 2.8 NNE 15 19 8 10 1018.9 - 0.0
27/10:00pm 12.3 8.3 6.6 68 2.7 N 17 24 9 13 1018.9 - 0.0
27/09:30pm 13.1 9.2 6.9 66 3.0 N 17 20 9 11 1019.1 - 0.0
27/09:00pm 13.9 10.0 6.9 62 3.4 N 17 20 9 11 1019.1 1019.1 0.0
27/08:30pm 13.6 9.3 7.0 64 3.2 N 19 26 10 14 1019.0 - 0.0
27/08:00pm 12.9 9.1 7.6 70 2.6 NNE 17 20 9 11 1019.2 - 0.0
27/07:30pm 12.9 8.8 7.8 71 2.5 NNE 19 20 10 11 1019.3 - 0.0
27/07:00pm 13.1 9.3 7.6 69 2.7 NNE 17 19 9 10 1019.5 - 0.0
27/06:30pm 14.0 9.9 7.9 66 3.0 N 19 24 10 13 1019.4 - 0.0
27/06:00pm 14.7 10.7 8.1 64 3.3 N 19 26 10 14 1019.4 1019.4 0.0
27/05:30pm 15.8 11.3 6.8 55 4.4 N 20 30 11 16 1019.2 - 0.0
27/05:00pm 16.0 11.7 7.1 55 4.4 N 19 22 10 12 1019.2 - 0.0
27/04:30pm 16.4 11.1 6.6 52 4.8 N 24 32 13 17 1019.0 - 0.0
27/04:00pm 16.7 10.5 6.0 49 5.2 N 28 39 15 21 1019.3 - 0.0
27/03:30pm 16.7 10.0 5.7 48 5.3 N 30 43 16 23 1019.2 - 0.0
27/03:00pm 16.3 9.3 5.9 50 5.0 N 32 43 17 23 1019.5 1019.5 0.0
27/02:30pm 16.1 9.1 5.9 50 4.9 N 32 43 17 23 1019.7 - 0.0
27/02:16pm 16.1 9.9 6.2 52 4.8 N 28 46 15 25 1019.9 - 0.0
27/02:00pm 16.1 10.0 6.4 52 4.7 N 28 37 15 20 1020.1 - 0.0
27/01:30pm 16.0 10.7 6.6 53 4.6 N 24 35 13 19 1020.2 - 0.0
27/01:00pm 15.6 9.6 7.0 56 4.2 N 28 35 15 19 1020.4 - 0.0
27/12:30pm 15.0 8.6 6.8 58 4.0 N 30 41 16 22 1021.4 - 0.0

Latest Capital City Observations: Canberra | Sydney | Melbourne | Brisbane | Adelaide | Perth | Hobart | Darwin

Other Formats:

Comma delimited format used in spreadsheet applications
http://www.bom.gov.au/fwo/IDS60901/IDS60901.94672.axf

JavaScript Object Notation format (JSON) in row-major order
http://www.bom.gov.au/fwo/IDS60901/IDS60901.94672.json